Location: Alphen
(52.1351°N, 4.6549°E)
Time: 01:53:07
(UTC+00:00)

NOSS 5 (C) - Pass Details

Date: 27 January 2021
Orbit: 378 x 1728 km, 63.3° (Epoch: 26 February)

Event Time Altitude Azimuth Distance (km) Brightness Sun altitude
Exits shadow 05:56:50 10° 232° (SW) 1,868 7.2 -14.0°
Maximum altitude 06:00:51 72° 317° (NW) 500 4.4 -13.4°
Drops below altitude 10° 06:04:03 10° 43° (NE) 1,494 7.4 -12.9°
Sets 06:05:55 0° 45° (NE) 2,299 8.5 -12.7°
